Regional Weather Roundup
Issued by NWS Kansas City/Pleasant Hill, MO

Home | Current Version | Previous Version | Text Only | Print | Product List | Glossary On
Versions: 1 2 3 4 5 6 7 8 9 10 11 12 13 14 15 16 17 18 19 20 21 22 23 24 25 26 27
000
ASUS43 KEAX 300710
RWREAX

WEATHER ROUNDUP FOR EASTERN KANSAS AND NORTHWEST MISSOURI
NATIONAL WEATHER SERVICE KANSAS CITY/PLEASANT HILL MO
200 AM CDT TUE MAY 30 2017

KSZ040-057-103>105-MOZ028-029-037-043-300800-
...KANSAS CITY METROPOLITAN AREA...

CITY           SKY/WX    TMP DP  RH WIND       PRES   REMARKS
K.C. INTL      CLEAR     61  41  47 N5        30.07R
K.C. DOWNTOWN  CLEAR     61  49  64 CALM      30.06R
LEES SUMMIT    CLEAR     64  43  46 CALM      30.07S
OLATHE - IXD   CLEAR     59  45  59 CALM      30.08R
OLATHE - OJC   PTCLDY    64  43  46 N6        30.07S
LAWRENCE       PTCLDY    53  50  89 CALM      30.08R

$$

MOZ001>008-011>017-020>025-030>033-038>040-044>046-053-054-300800-
...NORTHERN AND CENTRAL MISSOURI...

CITY           SKY/WX    TMP DP  RH WIND       PRES   REMARKS
ST. JOSEPH     CLEAR     53  49  86 CALM      30.06S
MOSBY          SUNNY     54  52  94 CALM      30.07S
WARRENSBURG    CLEAR     61  46  59 NW3       30.06R
WHITEMAN AFB   CLEAR     59  54  83 N6        30.05R
CLINTON        CLEAR     57  55  94 CALM      30.06R
SEDALIA        PTCLDY    62  52  69 NW3       30.06R
WARSAW         NOT AVBL
CHILLICOTHE      N/A     53  49  86 CALM      30.07R
KIRKSVILLE     PTCLDY    53  32  44 W5        30.04S

$$

MOZ041-047>049-056>058-063>065-088>090-097-300800-
...EASTERN AND SOUTHERN MISSOURI...

CITY           SKY/WX    TMP DP  RH WIND       PRES   REMARKS
ST. LOUIS INTL MOCLDY    65  56  72 W3        30.01R
SPIRIT OF STL  PTCLDY    57  56  96 SW3       30.00S
COLUMBIA       PTCLDY    61  53  75 NW6       30.04R
JEFFERSON CITY PTCLDY    61  55  81 NW3       30.03R
ROLLA          PTCLDY    57  53  86 CALM      30.03R
OSAGE BEACH    PTCLDY    57  56  96 CALM      30.05R
SPRINGFIELD    MOCLDY    62  57  83 CALM      30.05S
BRANSON        PTCLDY    68  55  64 CALM      30.06F
JOPLIN         CLEAR     60  58  92 CALM      30.06S
WEST PLAINS    PTCLDY    61  58  90 CALM      30.05S

$$

IAZ060-094-KSZ022-034>040-054-083-096-NEZ052-066-093-300800-
...KANSAS...SOUTHEAST NEBRASKA AND IOWA...

CITY           SKY/WX    TMP DP  RH WIND       PRES   REMARKS
TOPEKA         PTCLDY    57  51  80 CALM      30.07S
MANHATTAN      CLOUDY    54  50  86 CALM      30.08S
EMPORIA        CLEAR     60  51  72 NE3       30.09R
CHANUTE        CLEAR     57  53  86 CALM      30.06S
WICHITA        CLOUDY    62  54  74 CALM      30.07S
OMAHA          PTCLDY    54  45  71 SE5       30.04S
LINCOLN        CLEAR     50  44  80 CALM      30.07S
LAMONI         CLEAR     54  45  71 W5        30.04S
DES MOINES     CLEAR     56  45  66 W5        30.01S

$$





USA.gov is the U.S. government's official web portal to all federal, state and local government web resources and services.